[[{"header":{"parameterUnit":"m.s-1","parameterCategory":1,"la1":30.2991,"la2":30.254,"lo1":-89.0895,"lo2":-89.0444,"dy":0.0017,"dx":0.0017,"nx":28,"ny":28,"refTime":"2024-09-26T09:00:00:Z","depth":0,"parameterNumber":2,"parameterNumberName":"U-component_of_WINDS"},"data":[0,0,0,0,0,0,0,0,0,0,0,0,0,0,0,0,0,0,0,0,0,0,0,0,0,0,0,0,0,0,0,0,0,0,0,0,0,0,0,0,0,0,0,0,0,0,0,0,0,0,0,0,0,0,0,0,0,0,-2.1802,-2.1802,0,-2.1838,-2.1839,-2.1839,-2.1775,-2.1773,-2.1771,-2.1769,-2.1808,-2.1811,-2.1814,0,0,0,0,0,0,0,0,0,0,0,0,0,-2.1679,-2.1682,-2.1802,-2.1802,-2.1803,-2.1838,-2.1839,-2.1839,-2.1776,-2.1773,-2.1771,-2.1768,-2.1807,-2.181,-2.1814,0,0,0,0,0,0,0,0,0,0,0,0,0,-2.1726,-2.1682,-2.1802,-2.1775,-2.1773,-2.1838,-2.1839,-2.1839,-2.1776,-2.1773,-2.177,-2.1767,-2.1806,-2.181,-2.1814,-2.1907,0,0,-2.1828,-2.183,0,0,0,0,0,0,0,0,-2.1723,-2.173,-2.1779,-2.1777,-2.1775,-2.1799,-2.1809,-2.1862,-2.1777,-2.1775,-2.1769,-2.1765,-2.1808,-2.1812,-2.1826,-2.1909,-2.191,-2.1829,-2.1831,-2.1833,-2.1835,0,0,0,0,0,0,0,-2.172,-2.1728,-2.1816,-2.178,-2.1777,-2.1762,-2.1765,-2.1819,-2.1809,-2.1775,-2.1771,-2.1776,-2.1806,-2.1821,-2.1826,-2.1911,-2.1829,-2.1833,-2.1835,-2.1837,-2.2072,-2.2075,0,0,0,0,0,0,-2.172,-2.1726,-2.1815,-2.1817,-2.1741,-2.1767,-2.177,-2.1795,-2.1808,-2.1807,-2.1778,-2.1773,-2.1815,-2.1821,-2.1827,-2.1937,-2.1833,-2.1838,-2.184,-2.2068,-2.2073,-2.2076,0,0,0,0,0,0,-2.1717,-2.1728,-2.1814,-2.177,-2.178,-2.1773,-2.18,-2.1797,-2.1812,-2.1811,-2.1809,-2.1796,-2.1813,-2.1821,-2.1887,-2.1937,-2.184,-2.1844,-2.2064,-2.207,-2.2074,-2.2157,0,0,0,0,0,0,-2.1714,-2.1728,-2.1763,-2.1772,-2.1783,-2.1873,-2.1803,-2.18,-2.182,-2.1813,-2.1827,-2.1826,-2.1811,-2.1881,-2.1892,-2.1942,-2.1847,-2.206,-2.2067,-2.2073,-2.2149,-2.2164,-2.2176,0,0,0,0,0,-2.171,-2.1784,-2.1765,-2.1776,-2.1826,-2.1876,-2.1883,-2.1863,-2.1824,-2.186,-2.1858,-2.1825,-2.193,-2.1888,-2.19,-2.1952,-2.2057,-2.2065,-2.2072,-2.2143,-2.2161,-2.2176,0,0,0,0,0,0,-2.1782,-2.1785,-2.1763,-2.1843,-2.186,-2.1865,-2.1909,-2.1883,-2.1911,-2.1904,-2.1879,-2.1883,-2.1955,-2.196,-2.1914,-2.2042,-2.1987,-2.1997,-2.2037,-2.2053,-2.2067,-2.2065,-2.1851,0,0,0,0,0,-2.1807,-2.1847,-2.1848,-2.1918,-2.1928,-2.1917,-2.1938,-2.1922,-2.1939,-2.1946,-2.1949,-2.1967,-2.2004,-2.2029,-2.2062,-2.2149,-2.2152,-2.2191,-2.2204,-2.2215,-2.2225,-2.2272,-2.229,-2.2102,-2.2102,-2.2102,0,0,-2.186,-2.1866,-2.1893,-2.1933,-2.1944,-2.1987,-2.1924,-2.1971,-2.2003,-2.1953,-2.2016,-2.202,-2.2038,-2.2115,-2.215,-2.2122,-2.2277,-2.2225,-2.2234,-2.2238,-2.2282,-2.23,-2.2316,-2.2108,-2.2107,-2.2106,0,0,-2.1977,-2.1986,-2.2046,-2.2058,-2.2075,-2.2068,-2.2082,-2.2092,-2.2092,-2.2155,-2.2119,-2.2156,-2.2219,-2.2234,-2.225,-2.2373,-2.2344,-2.2384,-2.2456,-2.2502,-2.2516,-2.2529,-2.2574,-2.259,-2.2394,-2.2394,-2.2394,0,-2.204,-2.2103,-2.208,-2.213,-2.2149,-2.2105,-2.2166,-2.2179,-2.2207,-2.2221,-2.2189,-2.2268,-2.2277,-2.2358,-2.2388,-2.2402,-2.2418,-2.2383,-2.2516,-2.2529,-2.2541,-2.2583,-2.26,-2.2399,-2.2398,-2.2398,-2.2397,0,-2.218,-2.2224,-2.227,-2.2298,-2.2322,-2.2377,-2.2363,-2.239,-2.2371,-2.2367,-2.2432,-2.2441,-2.2476,-2.2494,-2.2476,-2.2572,-2.2555,-2.252,-2.2464,-2.2564,-2.2603,-2.2619,-2.2406,-2.2404,-2.2403,-2.2402,0,0,-2.2345,-2.2359,-2.2377,-2.2389,-2.2405,-2.2438,-2.2492,-2.2525,-2.2549,-2.257,-2.2615,-2.2669,-2.2637,-2.2655,-2.2639,-2.2679,-2.2777,-2.2639,-2.2639,-2.2666,-2.2884,-2.2911,-2.293,-2.2757,-2.276,-2.2762,-2.2883,0,-2.2463,-2.2555,-2.2536,-2.2626,-2.2667,-2.2625,-2.2672,-2.2687,-2.2684,-2.2719,-2.2716,-2.2755,-2.2709,-2.272,-2.2758,-2.2757,-2.2821,-2.2748,-2.2799,-2.2802,-2.2798,-2.2951,-2.298,-2.3093,-2.2898,-2.2901,-2.2903,0,-2.2613,-2.2639,-2.2734,-2.2743,-2.2759,-2.2801,-2.2831,-2.2864,-2.288,-2.2876,-2.2896,-2.2871,-2.2925,-2.2867,-2.2941,-2.2892,-2.2911,-2.2914,-2.2918,-2.2923,-2.2859,-2.2961,-2.3128,-2.3146,-2.2926,-2.2925,-2.2923,0,-2.2726,-2.2784,-2.2848,-2.286,-2.2872,-2.2903,-2.2909,-2.2922,-2.2944,-2.297,-2.2983,-2.3015,-2.3033,-2.3058,-2.3044,-2.3003,-2.312,-2.3061,-2.3119,-2.3119,-2.3146,-2.3145,-2.3321,-2.3157,-2.3157,-2.3157,-2.3156,0,-2.286,-2.292,-2.2899,-2.2939,-2.3004,-2.2981,-2.3047,-2.3049,-2.3061,-2.31,-2.3066,-2.3104,-2.3081,-2.3118,-2.3106,-2.317,-2.3178,-2.3176,-2.3172,-2.318,-2.318,-2.3193,-2.3186,-2.3161,-2.316,-2.3159,-2.3158,0,-2.2997,-2.2986,-2.3053,-2.3059,-2.3062,-2.311,-2.3115,-2.3153,-2.3147,-2.3198,-2.3208,-2.32,-2.3241,-2.3228,-2.3272,-2.3265,-2.3345,-2.3331,-2.334,-2.3337,-2.3396,-2.3391,-2.3587,-2.3612,-2.3431,-2.3433,-2.3435,0,-2.3085,-2.313,-2.314,-2.3164,-2.3173,-2.3212,-2.3234,-2.3213,-2.3237,-2.3258,-2.3293,-2.3331,-2.336,-2.3428,-2.3426,-2.346,-2.3447,-2.3513,-2.3452,-2.3458,-2.3449,-2.3447,-2.3452,-2.3526,-2.3528,-2.3529,-2.3531,0,-2.3241,-2.3233,-2.3265,-2.3296,-2.3323,-2.3346,-2.3367,-2.3388,-2.3368,-2.3397,-2.3438,-2.3461,-2.3506,-2.3544,-2.3575,-2.3582,-2.3554,-2.355,-2.3565,-2.3574,-2.3578,-2.3578,-2.3375,-2.3546,-2.3544,-2.3543,-2.3542,-2.3542,-2.3357,-2.3395,-2.3409,-2.3446,-2.3459,-2.3479,-2.3514,-2.3513,-2.3547,-2.3581,-2.3566,-2.3614,-2.3629,-2.3667,-2.3678,-2.3716,-2.369,-2.3712,-2.3718,-2.3724,-2.3732,-2.3571,-2.3721,-2.372,-2.372,-2.372,-2.3719,0,-2.3513,-2.3519,-2.3554,-2.3583,-2.3613,-2.3582,-2.3603,-2.363,-2.3672,-2.3688,-2.3718,-2.3765,-2.3802,-2.3803,-2.3837,-2.3867,-2.3855,-2.3877,-2.3875,-2.3878,-2.3752,-2.3736,-2.3886,-2.3886,-2.3886,-2.3886,-2.3886,-2.3886,-2.3597,-2.3661,-2.3654,-2.3724,-2.373,-2.3776,-2.3791,-2.3809,-2.3821,-2.3876,-2.3906,-2.3906,-2.3916,-2.3951,-2.3984,-2.3983,-2.3998,-2.4025,-2.402,-2.3903,-2.3886,-2.3871,-2.3855,-2.4028,-2.4028,-2.4142,-2.4143,-2.4144]},{"header":{"parameterUnit":"m.s-1","parameterCategory":1,"la1":30.2991,"la2":30.254,"lo1":-89.0895,"lo2":-89.0444,"dy":0.0017,"dx":0.0017,"nx":28,"ny":28,"refTime":"2024-09-26T09:00:00:Z","depth":0,"parameterNumber":3,"parameterNumberName":"V-component_of_WINDS"},"data":[0,0,0,0,0,0,0,0,0,0,0,0,0,0,0,0,0,0,0,0,0,0,0,0,0,0,0,0,0,0,0,0,0,0,0,0,0,0,0,0,0,0,0,0,0,0,0,0,0,0,0,0,0,0,0,0,0,0,-6.2145,-6.2145,0,-6.2153,-6.2153,-6.2153,-6.2041,-6.2038,-6.2035,-6.2032,-6.2039,-6.2042,-6.2045,0,0,0,0,0,0,0,0,0,0,0,0,0,-6.203,-6.2033,-6.2145,-6.2145,-6.2145,-6.2153,-6.2153,-6.2153,-6.2042,-6.2038,-6.2034,-6.2031,-6.2038,-6.2041,-6.2045,0,0,0,0,0,0,0,0,0,0,0,0,0,-6.2063,-6.2034,-6.2145,-6.209,-6.2086,-6.2153,-6.2153,-6.2153,-6.2042,-6.2038,-6.2033,-6.2029,-6.2037,-6.2041,-6.2046,-6.2165,0,0,-6.2059,-6.2061,0,0,0,0,0,0,0,0,-6.2062,-6.2068,-6.2098,-6.2094,-6.2089,-6.2091,-6.2115,-6.2157,-6.2043,-6.2059,-6.2032,-6.2027,-6.206,-6.2062,-6.2074,-6.2166,-6.2166,-6.206,-6.2063,-6.2064,-6.2066,0,0,0,0,0,0,0,-6.206,-6.2067,-6.2148,-6.2099,-6.2093,-6.2065,-6.2064,-6.2123,-6.2085,-6.2057,-6.2049,-6.2052,-6.2056,-6.207,-6.2073,-6.2166,-6.206,-6.2064,-6.2066,-6.2068,-6.2355,-6.236,0,0,0,0,0,0,-6.2065,-6.2066,-6.2148,-6.2148,-6.2064,-6.2071,-6.207,-6.2095,-6.2084,-6.2078,-6.2055,-6.2046,-6.2064,-6.2068,-6.2073,-6.2211,-6.2064,-6.2069,-6.2071,-6.235,-6.2356,-6.2361,0,0,0,0,0,0,-6.2063,-6.2073,-6.2148,-6.2105,-6.2112,-6.2077,-6.2107,-6.2098,-6.2111,-6.2083,-6.2075,-6.2076,-6.2061,-6.2067,-6.2143,-6.221,-6.2071,-6.2075,-6.2344,-6.2352,-6.2359,-6.249,0,0,0,0,0,0,-6.206,-6.2073,-6.2119,-6.2107,-6.2115,-6.2219,-6.2111,-6.2101,-6.2119,-6.2107,-6.21,-6.2094,-6.2058,-6.2137,-6.2148,-6.2214,-6.2078,-6.2338,-6.2348,-6.2356,-6.248,-6.2501,-6.252,0,0,0,0,0,-6.2056,-6.2156,-6.2122,-6.2133,-6.2171,-6.2223,-6.2227,-6.2183,-6.2125,-6.217,-6.2152,-6.2095,-6.2201,-6.2146,-6.2157,-6.2225,-6.2334,-6.2345,-6.2356,-6.2471,-6.2497,-6.2519,0,0,0,0,0,0,-6.2176,-6.2153,-6.2115,-6.2214,-6.2221,-6.2204,-6.2259,-6.2213,-6.2236,-6.2224,-6.2168,-6.2167,-6.2252,-6.2246,-6.2185,-6.234,-6.2257,-6.2271,-6.2341,-6.2365,-6.2385,-6.2384,-6.2082,0,0,0,0,0,-6.2214,-6.2259,-6.2236,-6.2325,-6.233,-6.2295,-6.2315,-6.2281,-6.2286,-6.2288,-6.2275,-6.2282,-6.2317,-6.2341,-6.2371,-6.2479,-6.2475,-6.2531,-6.2551,-6.2568,-6.258,-6.2635,-6.266,-6.2398,-6.2397,-6.2397,0,0,-6.2293,-6.2286,-6.2317,-6.2349,-6.235,-6.2396,-6.2298,-6.2351,-6.2385,-6.2296,-6.2367,-6.2358,-6.2362,-6.2454,-6.2494,-6.2452,-6.2652,-6.2582,-6.2595,-6.2598,-6.2649,-6.2674,-6.2696,-6.2405,-6.2404,-6.2403,0,0,-6.246,-6.246,-6.2533,-6.2537,-6.2541,-6.2516,-6.2534,-6.2524,-6.2514,-6.2585,-6.2519,-6.2558,-6.262,-6.2624,-6.2635,-6.2804,-6.2752,-6.2815,-6.2919,-6.2974,-6.2994,-6.3012,-6.3072,-6.3094,-6.2828,-6.2828,-6.2828,0,-6.2557,-6.2625,-6.2577,-6.2634,-6.265,-6.2572,-6.2646,-6.2651,-6.2665,-6.2677,-6.2629,-6.2704,-6.2701,-6.2793,-6.2835,-6.2846,-6.2864,-6.2816,-6.2995,-6.3013,-6.3029,-6.3085,-6.3108,-6.2836,-6.2835,-6.2834,-6.2833,0,-6.2744,-6.2792,-6.2851,-6.2866,-6.2888,-6.2953,-6.2914,-6.2942,-6.2906,-6.2886,-6.2959,-6.2953,-6.298,-6.2999,-6.2964,-6.3086,-6.306,-6.3005,-6.292,-6.3063,-6.3114,-6.3135,-6.2847,-6.2844,-6.2842,-6.284,0,0,-6.2986,-6.2974,-6.2996,-6.3002,-6.3,-6.3036,-6.3098,-6.3125,-6.315,-6.3162,-6.3211,-6.3265,-6.3214,-6.3226,-6.3191,-6.3239,-6.3372,-6.3178,-6.3177,-6.3213,-6.3505,-6.3546,-6.3572,-6.3338,-6.3341,-6.3345,-6.3504,0,-6.3148,-6.3253,-6.3211,-6.3319,-6.3362,-6.3289,-6.3342,-6.3347,-6.333,-6.3364,-6.3345,-6.3383,-6.3314,-6.332,-6.3365,-6.3347,-6.343,-6.3334,-6.3382,-6.3385,-6.3383,-6.3599,-6.3642,-6.3793,-6.3524,-6.3528,-6.353,0,-6.3351,-6.3371,-6.3484,-6.3474,-6.349,-6.3539,-6.356,-6.3594,-6.3597,-6.3581,-6.3595,-6.3549,-6.3608,-6.3524,-6.3604,-6.354,-6.3557,-6.3551,-6.3556,-6.3558,-6.3466,-6.3606,-6.384,-6.3863,-6.3562,-6.3559,-6.3557,0,-6.3515,-6.3571,-6.3645,-6.3652,-6.3643,-6.3679,-6.3676,-6.3675,-6.3694,-6.3712,-6.3724,-6.3749,-6.3763,-6.3783,-6.3745,-6.3688,-6.383,-6.3743,-6.3818,-6.3819,-6.3851,-6.3849,-6.4091,-6.3864,-6.3863,-6.3863,-6.3862,0,-6.37,-6.3771,-6.3719,-6.3765,-6.3842,-6.3793,-6.3871,-6.386,-6.386,-6.3902,-6.384,-6.388,-6.3828,-6.3863,-6.3833,-6.3904,-6.391,-6.3899,-6.389,-6.3904,-6.3906,-6.3914,-6.3902,-6.3869,-6.3867,-6.3866,-6.3865,0,-6.3897,-6.3865,-6.394,-6.3925,-6.3923,-6.3981,-6.3967,-6.4009,-6.3987,-6.4041,-6.4051,-6.4018,-6.4056,-6.402,-6.4056,-6.4036,-6.413,-6.4106,-6.4129,-6.4122,-6.4198,-6.4192,-6.4453,-6.4485,-6.4238,-6.4241,-6.4243,0,-6.4016,-6.4069,-6.406,-6.4084,-6.4085,-6.4124,-6.4143,-6.4097,-6.4119,-6.4126,-6.4167,-6.42,-6.4223,-6.4288,-6.4267,-6.4294,-6.427,-6.436,-6.4273,-6.4286,-6.427,-6.4267,-6.4272,-6.4377,-6.438,-6.4382,-6.4384,0,-6.4232,-6.4213,-6.4243,-6.4267,-6.4292,-6.4309,-6.4321,-6.4344,-6.4296,-6.4324,-6.4362,-6.4381,-6.4417,-6.4451,-6.4471,-6.4468,-6.4419,-6.4412,-6.443,-6.4445,-6.4455,-6.445,-6.4176,-6.4406,-6.4404,-6.4402,-6.4401,-6.44,-6.4392,-6.4436,-6.4436,-6.4471,-6.4476,-6.4488,-6.4526,-6.451,-6.4541,-6.4567,-6.4538,-6.4585,-6.4586,-6.4609,-6.4611,-6.4647,-6.4609,-6.4636,-6.4643,-6.465,-6.4661,-6.4451,-6.465,-6.465,-6.4649,-6.4649,-6.4648,0,-6.4604,-6.46,-6.4633,-6.4652,-6.468,-6.4631,-6.4641,-6.4668,-6.471,-6.4715,-6.474,-6.4784,-6.4815,-6.4797,-6.4824,-6.4856,-6.4834,-6.4865,-6.4862,-6.4862,-6.4693,-6.4674,-6.4882,-6.4882,-6.4882,-6.4882,-6.4882,-6.4882,-6.4717,-6.4788,-6.4769,-6.4841,-6.4837,-6.4882,-6.4893,-6.4904,-6.4907,-6.4959,-6.4986,-6.4973,-6.4969,-6.4995,-6.5022,-6.5016,-6.5029,-6.5068,-6.5053,-6.4897,-6.4873,-6.4851,-6.4833,-6.5071,-6.5071,-6.5218,-6.522,-6.5221]}]]